Location: Corralito
(10.2667°N, 66.9500°W)
Time: 10:10:09
(UTC+00:00)

GPS 2-15 Rocket1 - Pass Details

Date: 07 December 2023
Orbit: 617 x 666 km, 19.8° (Epoch: 02 March)

Event Time Altitude Azimuth Distance (km) Brightness Sun altitude
Exits shadow 09:18:36 31° 322° (NW) 1,101 3.9 -17.8°
Maximum altitude 09:20:22 46° 14° (NNE) 844 3.6 -17.4°
Drops below altitude 10° 09:24:53 10° 87° (E) 2,007 6.7 -16.3°
Sets 09:27:21 0° 94° (E) 2,925 8.0 -15.8°
